WB5MTX Weather Reports


Display with metric or nautical units.
time (UTC)temp
F
wind
direction
speed
MPH
gust
MPH
rain 1hr
in
rain 24hr
in
rain mn
in
humidity
%
barometer
mb
20260905073107 79 0 0.0 3.0 0.00 0.00 0.00 76 1013.4
20260905071559 79 213 0.0 0.0 0.00 0.00 0.00 75 1013.5
20260905070108 80 0 0.0 3.0 0.00 0.00 0.00 75 1013.7
20260905064559 80 0 0.0 3.0 0.00 0.01 0.00 74 1013.8
20260905063104 81 0 1.0 6.0 0.00 0.01 0.00 73 1013.8
20260905061604 81 0 0.0 3.0 0.00 0.01 0.00 73 1013.8
20260905060109 82 194 0.0 0.0 0.00 0.01 0.00 72 1013.8
20260905054604 82 0 0.0 0.0 0.00 0.16 0.00 71 1013.6
20260905053100 83 0 0.0 5.0 0.00 0.16 0.00 70 1013.3
20260905051558 83 0 0.0 11.0 0.00 0.16 0.00 70 1013.2
20260905050109 83 0 0.0 5.0 0.00 0.16 0.00 69 1013.1
20260905044603 84 0 0.0 4.0 0.00 0.16 0.16 67 1013.2
20260905043106 84 211 0.0 3.0 0.00 0.16 0.16 67 1013.2
20260905041602 85 0 0.0 3.0 0.00 0.16 0.16 65 1013.1
20260905040104 85 0 0.0 5.0 0.00 0.16 0.16 63 1013.2
20260905034601 85 0 0.0 3.0 0.00 0.16 0.16 61 1013.1
20260905033104 86 0 0.0 3.0 0.00 0.16 0.16 60 1013.2
20260905031617 86 0 0.0 3.0 0.00 0.16 0.16 60 1013.1
20260905030100 87 0 0.0 0.0 0.00 0.16 0.16 60 1013.0
20260905024601 88 0 0.0 2.0 0.00 0.16 0.16 58 1012.8
20260905023101 88 0 0.0 1.0 0.00 0.16 0.16 57 1012.6
20260905021603 89 0 0.0 2.0 0.00 0.16 0.16 56 1012.3
20260905014603 90 0 0.0 3.0 0.00 0.16 0.16 54 1011.9
20260905013104 91 0 0.0 4.0 0.00 0.16 0.16 53 1011.6
20260905011600 91 0 0.0 2.0 0.00 0.16 0.16 52 1011.4
20260905010110 92 0 0.0 5.0 0.00 0.16 0.16 50 1011.2
20260905004603 93 0 0.0 4.0 0.00 0.16 0.16 49 1011.1
20260905003103 94 200 0.0 4.0 0.00 0.16 0.16 48 1010.9
20260905001558 95 0 0.0 4.0 0.00 0.16 0.16 46 1010.7
20260905000106 96 0 0.0 4.0 0.00 0.16 0.16 45 1010.7
20260904234601 96 0 0.0 7.0 0.00 0.16 0.16 45 1010.7
20260904233103 97 0 0.0 8.0 0.00 0.16 0.16 43 1010.7
20260904231600 98 0 0.0 7.0 0.00 0.16 0.16 42 1010.7
20260904230111 98 0 1.0 9.0 0.00 0.16 0.16 40 1010.8
20260904224558 98 0 1.0 4.0 0.00 0.16 0.16 39 1010.9
20260904223107 99 160 0.0 8.0 0.00 0.16 0.16 41 1011.1
20260904221609 99 90 0.0 9.0 0.00 0.16 0.16 40 1011.1
20260904220120 100 107 0.0 5.0 0.00 0.16 0.16 39 1011.1
20260904214606 99 0 1.0 8.0 0.00 0.16 0.16 41 1011.2
20260904213103 99 0 2.0 9.0 0.00 0.16 0.16 41 1011.5
20260904211607 98 0 0.0 7.0 0.00 0.16 0.16 42 1011.6
20260904210108 99 109 0.0 8.0 0.00 0.16 0.16 41 1011.9
20260904204603 98 0 1.0 10.0 0.00 0.16 0.16 42 1012.1
20260904203100 97 0 2.0 11.0 0.00 0.16 0.16 45 1012.2
20260904201600 97 0 1.0 9.0 0.00 0.16 0.16 45 1012.3
20260904200110 97 103 1.0 8.0 0.00 0.16 0.16 45 1012.7
20260904194606 96 78 0.0 8.0 0.00 0.16 0.16 46 1012.9
20260904193101 96 0 2.0 10.0 0.00 0.16 0.16 47 1013.0
20260904191601 95 239 1.0 8.0 0.00 0.16 0.16 48 1013.1
20260904190107 94 0 2.0 9.0 0.00 0.16 0.16 49 1013.3
20260904184612 95 216 3.0 9.0 0.00 0.16 0.16 47 1013.4
20260904183058 94 150 1.0 9.0 0.00 0.16 0.16 50 1013.7
20260904181601 92 0 0.0 6.0 0.00 0.16 0.16 54 1014.0
20260904180114 91 0 1.0 7.0 0.00 0.16 0.16 51 1014.2
20260904174622 91 0 0.0 8.0 0.00 0.16 0.16 52 1014.3
20260904173109 91 0 2.0 7.0 0.00 0.16 0.16 56 1014.4
20260904171604 89 102 1.0 6.0 0.00 0.16 0.16 57 1014.6
20260904170100 87 0 0.0 10.0 0.00 0.16 0.16 62 1014.7
20260904164603 88 234 2.0 11.0 0.00 0.16 0.16 61 1014.9
20260904163107 86 0 2.0 9.0 0.00 0.16 0.16 65 1014.9
20260904161609 86 0 2.0 10.0 0.00 0.16 0.16 67 1015.0
20260904160110 86 210 2.0 11.0 0.00 0.16 0.16 65 1014.9
20260904154604 84 205 2.0 8.0 0.00 0.16 0.16 76 1014.8
20260904153131 83 0 0.0 6.0 0.00 0.16 0.16 78 1014.8
20260904151608 83 215 1.0 6.0 0.00 0.16 0.16 78 1014.8
20260904150106 82 218 0.0 12.0 0.00 0.16 0.16 81 1014.7
20260904144603 81 220 1.0 8.0 0.00 0.16 0.16 79 1014.6